Time,TemperatureF,DewpointF,PressureIn,WindDirection,WindDirectionDegrees,WindSpeedMPH,WindSpeedGustMPH,Humidity,HourlyPrecipIn,Conditions,Clouds,dailyrainin,SoftwareType,DateUTC
2013-02-18 00:00:00,15.3,-0.4,29.72,WNW,283,5.0,5.0,49,0.00,,,0.00,WeatherCatV1.12B45,2013-02-18 05:00:00,
2013-02-18 00:05:00,15.3,0.5,29.70,NE,49,2.0,6.0,51,0.00,,,0.00,WeatherCatV1.12B45,2013-02-18 05:05:00,
2013-02-18 00:10:00,15.2,-0.1,29.70,WNW,295,8.0,8.0,50,0.00,,,0.00,WeatherCatV1.12B45,2013-02-18 05:10:00,
2013-02-18 00:15:00,15.1,-0.2,29.70,NW,313,8.0,14.0,50,0.00,,,0.00,WeatherCatV1.12B45,2013-02-18 05:15:00,
2013-02-18 00:20:00,15.2,-0.1,29.70,WNW,298,7.0,9.0,50,0.00,,,0.00,WeatherCatV1.12B45,2013-02-18 05:20:00,
2013-02-18 00:25:00,15.2,-0.1,29.70,SW,229,3.0,13.0,50,0.00,,,0.00,WeatherCatV1.12B45,2013-02-18 05:25:00,
2013-02-18 00:30:00,15.2,-0.1,29.70,WNW,292,7.0,8.0,50,0.00,,,0.00,WeatherCatV1.12B45,2013-02-18 05:30:00,
2013-02-18 00:35:00,15.1,-0.2,29.70,WNW,299,8.0,8.0,50,0.00,,,0.00,WeatherCatV1.12B45,2013-02-18 05:35:00,
2013-02-18 00:40:00,15.0,-0.2,29.71,WNW,294,7.0,12.0,50,0.00,,,0.00,WeatherCatV1.12B45,2013-02-18 05:40:00,
2013-02-18 00:45:00,15.0,-0.2,29.71,West,272,3.0,7.0,50,0.00,,,0.00,WeatherCatV1.12B45,2013-02-18 05:45:00,
2013-02-18 00:50:00,15.0,-0.2,29.71,West,264,4.0,9.0,50,0.00,,,0.00,WeatherCatV1.12B45,2013-02-18 05:50:00,
2013-02-18 00:55:00,15.0,-0.2,29.72,WSW,255,7.0,8.0,50,0.00,,,0.00,WeatherCatV1.12B45,2013-02-18 05:55:00,
2013-02-18 01:00:00,15.0,-0.2,29.72,NNW,334,1.0,8.0,50,0.00,,,0.00,WeatherCatV1.12B45,2013-02-18 06:00:00,
2013-02-18 01:05:00,15.0,0.2,29.72,WNW,300,1.0,7.0,51,0.00,,,0.00,WeatherCatV1.12B45,2013-02-18 06:05:00,
2013-02-18 01:10:00,15.0,-0.2,29.72,WSW,243,5.0,12.0,50,0.00,,,0.00,WeatherCatV1.12B45,2013-02-18 06:10:00,
2013-02-18 01:15:00,15.0,0.2,29.73,North,4,4.0,4.0,51,0.00,,,0.00,WeatherCatV1.12B45,2013-02-18 06:15:00,
2013-02-18 01:20:00,14.8,0.0,29.73,NW,313,4.0,15.0,51,0.00,,,0.00,WeatherCatV1.12B45,2013-02-18 06:20:00,
2013-02-18 01:25:00,14.8,-0.4,29.77,North,349,6.0,11.0,50,0.00,,,0.00,WeatherCatV1.12B45,2013-02-18 06:25:00,
2013-02-18 01:30:00,14.8,-0.4,29.73,NW,305,0.0,12.0,50,0.00,,,0.00,WeatherCatV1.12B45,2013-02-18 06:30:00,
2013-02-18 01:35:00,14.8,0.0,29.73,NNW,336,0.0,11.0,51,0.00,,,0.00,WeatherCatV1.12B45,2013-02-18 06:35:00,
2013-02-18 01:40:00,14.8,0.0,29.73,West,277,6.0,6.0,51,0.00,,,0.00,WeatherCatV1.12B45,2013-02-18 06:40:00,
2013-02-18 01:45:00,14.7,-0.1,29.74,West,276,0.0,6.0,51,0.00,,,0.00,WeatherCatV1.12B45,2013-02-18 06:45:00,
2013-02-18 01:50:00,14.7,-0.1,29.74,WSW,242,10.0,10.0,51,0.00,,,0.00,WeatherCatV1.12B45,2013-02-18 06:50:00,
2013-02-18 01:55:00,14.7,-0.1,29.74,NW,323,2.0,9.0,51,0.00,,,0.00,WeatherCatV1.12B45,2013-02-18 06:55:00,
2013-02-18 02:00:00,14.5,-0.3,29.74,North,359,4.0,8.0,51,0.00,,,0.00,WeatherCatV1.12B45,2013-02-18 07:00:00,
2013-02-18 02:05:00,14.6,-0.2,29.74,SE,136,6.0,12.0,51,0.00,,,0.00,WeatherCatV1.12B45,2013-02-18 07:05:00,
2013-02-18 02:10:00,14.5,-0.3,29.75,NW,310,4.0,14.0,51,0.00,,,0.00,WeatherCatV1.12B45,2013-02-18 07:10:00,
2013-02-18 02:15:00,14.5,-0.3,29.75,NW,315,5.0,6.0,51,0.00,,,0.00,WeatherCatV1.12B45,2013-02-18 07:15:00,
2013-02-18 02:20:00,14.5,0.1,29.76,West,261,1.0,6.0,52,0.00,,,0.00,WeatherCatV1.12B45,2013-02-18 07:20:00,
2013-02-18 02:25:00,14.3,-0.5,29.75,WNW,289,5.0,10.0,51,0.00,,,0.00,WeatherCatV1.12B45,2013-02-18 07:25:00,
2013-02-18 02:30:00,14.3,-0.1,29.75,WNW,287,2.0,12.0,52,0.00,,,0.00,WeatherCatV1.12B45,2013-02-18 07:30:00,
2013-02-18 02:35:00,14.3,-0.5,29.75,NW,313,7.0,12.0,51,0.00,,,0.00,WeatherCatV1.12B45,2013-02-18 07:35:00,
2013-02-18 02:40:00,14.3,-0.5,29.76,WNW,299,8.0,9.0,51,0.00,,,0.00,WeatherCatV1.12B45,2013-02-18 07:40:00,
2013-02-18 02:45:00,14.3,-0.5,29.77,NNW,342,8.0,8.0,51,0.00,,,0.00,WeatherCatV1.12B45,2013-02-18 07:45:00,
2013-02-18 02:50:00,14.3,-0.5,29.76,NW,318,4.0,4.0,51,0.00,,,0.00,WeatherCatV1.12B45,2013-02-18 07:50:00,
2013-02-18 02:55:00,14.3,-0.5,29.76,West,280,9.0,12.0,51,0.00,,,0.00,WeatherCatV1.12B45,2013-02-18 07:55:00,
2013-02-18 03:00:00,14.3,-0.5,29.77,WNW,300,4.0,6.0,51,0.00,,,0.00,WeatherCatV1.12B45,2013-02-18 08:00:00,
2013-02-18 03:05:00,14.3,-0.5,29.77,WNW,286,4.0,6.0,51,0.00,,,0.00,WeatherCatV1.12B45,2013-02-18 08:05:00,
2013-02-18 03:10:00,14.3,-0.5,29.77,West,280,5.0,6.0,51,0.00,,,0.00,WeatherCatV1.12B45,2013-02-18 08:10:00,
2013-02-18 03:15:00,14.3,-0.5,29.77,West,265,5.0,14.0,51,0.00,,,0.00,WeatherCatV1.12B45,2013-02-18 08:15:00,
2013-02-18 03:20:00,14.2,-0.2,29.78,NNW,333,5.0,8.0,52,0.00,,,0.00,WeatherCatV1.12B45,2013-02-18 08:20:00,
2013-02-18 03:25:00,14.4,-0.4,29.78,NNW,343,4.0,9.0,51,0.00,,,0.00,WeatherCatV1.12B45,2013-02-18 08:25:00,
2013-02-18 03:30:00,14.2,-0.2,29.78,North,11,1.0,6.0,52,0.00,,,0.00,WeatherCatV1.12B45,2013-02-18 08:30:00,
2013-02-18 03:35:00,14.2,-0.6,29.78,NNW,338,5.0,8.0,51,0.00,,,0.00,WeatherCatV1.12B45,2013-02-18 08:35:00,
2013-02-18 03:40:00,14.0,-0.8,29.78,NW,322,4.0,11.0,51,0.00,,,0.00,WeatherCatV1.12B45,2013-02-18 08:40:00,
2013-02-18 03:45:00,14.0,-0.8,29.80,ENE,61,2.0,4.0,51,0.00,,,0.00,WeatherCatV1.12B45,2013-02-18 08:45:00,
2013-02-18 03:50:00,14.0,-0.8,29.79,South,190,4.0,7.0,51,0.00,,,0.00,WeatherCatV1.12B45,2013-02-18 08:50:00,
2013-02-18 03:55:00,14.0,-0.3,29.79,WNW,286,2.0,13.0,52,0.00,,,0.00,WeatherCatV1.12B45,2013-02-18 08:55:00,
2013-02-18 04:00:00,14.1,-0.3,29.79,NW,314,2.0,4.0,52,0.00,,,0.00,WeatherCatV1.12B45,2013-02-18 09:00:00,
2013-02-18 04:05:00,14.0,-0.3,29.81,WNW,288,8.0,12.0,52,0.00,,,0.00,WeatherCatV1.12B45,2013-02-18 09:05:00,
2013-02-18 04:10:00,14.2,-0.2,29.81,West,270,10.0,11.0,52,0.00,,,0.00,WeatherCatV1.12B45,2013-02-18 09:10:00,
2013-02-18 04:15:00,14.2,-0.2,29.81,NNW,336,2.0,7.0,52,0.00,,,0.00,WeatherCatV1.12B45,2013-02-18 09:15:00,
2013-02-18 04:20:00,14.2,-0.2,29.81,WNW,297,2.0,10.0,52,0.00,,,0.00,WeatherCatV1.12B45,2013-02-18 09:20:00,
2013-02-18 04:25:00,14.1,-0.3,29.81,WNW,300,1.0,8.0,52,0.00,,,0.00,WeatherCatV1.12B45,2013-02-18 09:25:00,
2013-02-18 04:30:00,14.0,-0.3,29.82,WNW,300,4.0,9.0,52,0.00,,,0.00,WeatherCatV1.12B45,2013-02-18 09:30:00,
2013-02-18 04:35:00,14.0,-0.3,29.82,NW,319,4.0,7.0,52,0.00,,,0.00,WeatherCatV1.12B45,2013-02-18 09:35:00,
2013-02-18 04:40:00,14.0,-0.3,29.82,NNW,330,5.0,11.0,52,0.00,,,0.00,WeatherCatV1.12B45,2013-02-18 09:40:00,
2013-02-18 04:45:00,14.2,-0.2,29.82,NW,308,5.0,8.0,52,0.00,,,0.00,WeatherCatV1.12B45,2013-02-18 09:45:00,
2013-02-18 04:50:00,14.0,-0.3,29.83,NNW,328,6.0,12.0,52,0.00,,,0.00,WeatherCatV1.12B45,2013-02-18 09:50:00,
2013-02-18 04:55:00,14.2,-0.2,29.83,WSW,251,3.0,6.0,52,0.00,,,0.00,WeatherCatV1.12B45,2013-02-18 09:55:00,
2013-02-18 05:00:00,14.1,-0.3,29.84,West,281,7.0,9.0,52,0.00,,,0.00,WeatherCatV1.12B45,2013-02-18 10:00:00,
2013-02-18 05:05:00,14.0,-0.3,29.83,WNW,294,5.0,6.0,52,0.00,,,0.00,WeatherCatV1.12B45,2013-02-18 10:05:00,
2013-02-18 05:10:00,14.0,-0.3,29.83,West,275,3.0,4.0,52,0.00,,,0.00,WeatherCatV1.12B45,2013-02-18 10:10:00,
2013-02-18 05:15:00,13.9,-0.4,29.85,NW,325,5.0,11.0,52,0.00,,,0.00,WeatherCatV1.12B45,2013-02-18 10:15:00,
2013-02-18 05:20:00,13.8,-0.5,29.85,West,272,7.0,13.0,52,0.00,,,0.00,WeatherCatV1.12B45,2013-02-18 10:20:00,
2013-02-18 05:25:00,13.9,-0.4,29.85,ENE,74,3.0,8.0,52,0.00,,,0.00,WeatherCatV1.12B45,2013-02-18 10:25:00,
2013-02-18 05:30:00,13.6,-0.7,29.86,NW,307,9.0,10.0,52,0.00,,,0.00,WeatherCatV1.12B45,2013-02-18 10:30:00,
2013-02-18 05:35:00,13.7,-0.6,29.86,WNW,285,7.0,11.0,52,0.00,,,0.00,WeatherCatV1.12B45,2013-02-18 10:35:00,
2013-02-18 05:40:00,13.7,-0.6,29.86,North,0,1.0,5.0,52,0.00,,,0.00,WeatherCatV1.12B45,2013-02-18 10:40:00,
2013-02-18 05:45:00,13.5,-0.8,29.87,WNW,303,6.0,6.0,52,0.00,,,0.00,WeatherCatV1.12B45,2013-02-18 10:45:00,
2013-02-18 05:50:00,13.4,-0.5,29.87,WNW,283,2.0,7.0,53,0.00,,,0.00,WeatherCatV1.12B45,2013-02-18 10:50:00,
2013-02-18 05:52:00,13.4,-0.9,29.88,West,259,0.0,3.0,52,0.00,,,0.00,WeatherCatV1.12B45,2013-02-18 10:52:00,
2013-02-18 05:57:00,13.3,-1.0,29.87,North,349,1.0,8.0,52,0.00,,,0.00,WeatherCatV1.12B45,2013-02-18 10:57:00,
2013-02-18 06:02:00,13.4,-0.9,29.88,West,268,1.0,4.0,52,0.00,,,0.00,WeatherCatV1.12B45,2013-02-18 11:02:00,
2013-02-18 06:07:00,13.2,-0.7,29.89,WNW,287,4.0,9.0,53,0.00,,,0.00,WeatherCatV1.12B45,2013-02-18 11:07:00,
2013-02-18 06:12:00,13.4,-0.9,29.89,NW,322,2.0,3.0,52,0.00,,,0.00,WeatherCatV1.12B45,2013-02-18 11:12:00,
2013-02-18 06:17:00,13.4,-0.9,29.89,WNW,303,4.0,4.0,52,0.00,,,0.00,WeatherCatV1.12B45,2013-02-18 11:17:00,
2013-02-18 06:22:00,13.4,-0.9,29.89,WSW,238,5.0,7.0,52,0.00,,,0.00,WeatherCatV1.12B45,2013-02-18 11:22:00,
2013-02-18 06:27:00,13.3,-1.0,29.89,NW,314,2.0,9.0,52,0.00,,,0.00,WeatherCatV1.12B45,2013-02-18 11:27:00,
2013-02-18 06:32:00,13.4,-0.9,29.90,WNW,285,2.0,6.0,52,0.00,,,0.00,WeatherCatV1.12B45,2013-02-18 11:32:00,
2013-02-18 06:37:00,13.4,-0.9,29.90,NW,319,6.0,7.0,52,0.00,,,0.00,WeatherCatV1.12B45,2013-02-18 11:37:00,
2013-02-18 06:42:00,13.5,-0.8,29.91,North,349,6.0,7.0,52,0.00,,,0.00,WeatherCatV1.12B45,2013-02-18 11:42:00,
2013-02-18 06:47:00,13.5,-0.8,29.91,West,265,5.0,7.0,52,0.00,,,0.00,WeatherCatV1.12B45,2013-02-18 11:47:00,
2013-02-18 06:52:00,13.5,-0.8,29.91,North,11,1.0,5.0,52,0.00,,,0.00,WeatherCatV1.12B45,2013-02-18 11:52:00,
2013-02-18 06:57:00,13.5,-0.8,29.91,NNE,21,1.0,8.0,52,0.00,,,0.00,WeatherCatV1.12B45,2013-02-18 11:57:00,
2013-02-18 07:02:00,13.3,-0.6,29.92,West,277,0.0,2.0,53,0.00,,,0.00,WeatherCatV1.12B45,2013-02-18 12:02:00,
2013-02-18 07:07:00,13.3,-1.0,29.92,SW,225,2.0,5.0,52,0.00,,,0.00,WeatherCatV1.12B45,2013-02-18 12:07:00,
2013-02-18 07:12:00,13.7,-0.6,29.93,WSW,252,1.0,3.0,52,0.00,,,0.00,WeatherCatV1.12B45,2013-02-18 12:12:00,
2013-02-18 07:17:00,14.0,-0.3,29.92,WSW,251,3.0,6.0,52,0.00,,,0.00,WeatherCatV1.12B45,2013-02-18 12:17:00,
2013-02-18 07:22:00,14.2,-0.6,29.93,WSW,246,3.0,4.0,51,0.00,,,0.00,WeatherCatV1.12B45,2013-02-18 12:22:00,
2013-02-18 07:27:00,14.5,-0.3,29.93,WSW,240,8.0,8.0,51,0.00,,,0.00,WeatherCatV1.12B45,2013-02-18 12:27:00,
2013-02-18 07:32:00,14.7,-0.5,29.93,West,261,6.0,8.0,50,0.00,,,0.00,WeatherCatV1.12B45,2013-02-18 12:32:00,
2013-02-18 07:37:00,14.8,-0.4,29.94,NW,310,5.0,7.0,50,0.00,,,0.00,WeatherCatV1.12B45,2013-02-18 12:37:00,
2013-02-18 07:42:00,15.0,-0.7,29.94,NNE,28,5.0,8.0,49,0.00,,,0.00,WeatherCatV1.12B45,2013-02-18 12:42:00,
2013-02-18 07:47:00,15.2,-0.5,29.94,WSW,257,4.0,8.0,49,0.00,,,0.00,WeatherCatV1.12B45,2013-02-18 12:47:00,
2013-02-18 07:52:00,15.3,-0.4,29.95,NW,307,3.0,10.0,49,0.00,,,0.00,WeatherCatV1.12B45,2013-02-18 12:52:00,
2013-02-18 07:57:00,15.6,-0.1,29.94,WNW,303,5.0,14.0,49,0.00,,,0.00,WeatherCatV1.12B45,2013-02-18 12:57:00,
2013-02-18 08:02:00,15.8,-0.4,29.95,West,265,4.0,9.0,48,0.00,,,0.00,WeatherCatV1.12B45,2013-02-18 13:02:00,
2013-02-18 08:07:00,15.8,-0.4,29.94,SW,219,4.0,9.0,48,0.00,,,0.00,WeatherCatV1.12B45,2013-02-18 13:07:00,
2013-02-18 08:12:00,16.0,-0.2,29.95,WSW,244,5.0,6.0,48,0.00,,,0.00,WeatherCatV1.12B45,2013-02-18 13:12:00,
2013-02-18 08:17:00,16.3,0.1,29.96,WNW,303,4.0,12.0,48,0.00,,,0.00,WeatherCatV1.12B45,2013-02-18 13:17:00,
2013-02-18 08:22:00,16.4,-0.3,29.95,WNW,287,8.0,13.0,47,0.00,,,0.00,WeatherCatV1.12B45,2013-02-18 13:22:00,
2013-02-18 08:27:00,16.8,0.1,29.95,NW,320,4.0,17.0,47,0.00,,,0.00,WeatherCatV1.12B45,2013-02-18 13:27:00,
2013-02-18 08:32:00,16.9,0.2,29.96,West,267,1.0,10.0,47,0.00,,,0.00,WeatherCatV1.12B45,2013-02-18 13:32:00,
2013-02-18 08:37:00,17.2,0.0,29.97,NNW,335,6.0,10.0,46,0.00,,,0.00,WeatherCatV1.12B45,2013-02-18 13:37:00,
2013-02-18 08:42:00,17.4,0.7,29.97,NW,312,5.0,8.0,47,0.00,,,0.00,WeatherCatV1.12B45,2013-02-18 13:42:00,
2013-02-18 08:47:00,17.7,0.5,29.97,East,84,7.0,9.0,46,0.00,,,0.00,WeatherCatV1.12B45,2013-02-18 13:47:00,
2013-02-18 08:52:00,18.0,0.3,29.97,NW,307,4.0,12.0,45,0.00,,,0.00,WeatherCatV1.12B45,2013-02-18 13:52:00,
2013-02-18 08:57:00,18.2,0.9,29.98,NW,326,8.0,14.0,46,0.00,,,0.00,WeatherCatV1.12B45,2013-02-18 13:57:00,
2013-02-18 09:02:00,18.2,0.0,29.99,NW,314,0.0,11.0,44,0.00,,,0.00,WeatherCatV1.12B45,2013-02-18 14:02:00,
2013-02-18 09:07:00,18.6,0.4,29.97,NNW,347,10.0,13.0,44,0.00,,,0.00,WeatherCatV1.12B45,2013-02-18 14:07:00,
2013-02-18 09:12:00,18.9,1.1,29.98,WNW,295,11.0,13.0,45,0.00,,,0.00,WeatherCatV1.12B45,2013-02-18 14:12:00,
2013-02-18 09:17:00,19.0,0.7,29.98,WNW,288,0.0,10.0,44,0.00,,,0.01,WeatherCatV1.12B45,2013-02-18 14:17:00,
2013-02-18 09:22:00,19.1,0.8,29.98,NE,39,5.0,8.0,44,0.00,,,0.01,WeatherCatV1.12B45,2013-02-18 14:22:00,
2013-02-18 09:27:00,19.3,0.5,29.98,West,265,2.0,17.0,43,0.00,,,0.01,WeatherCatV1.12B45,2013-02-18 14:27:00,
2013-02-18 09:32:00,19.3,0.0,29.99,West,279,7.0,10.0,42,0.00,,,0.01,WeatherCatV1.12B45,2013-02-18 14:32:00,
2013-02-18 09:35:00,19.6,0.8,29.99,NNE,18,4.0,7.0,43,0.00,,,0.01,WeatherCatV1.12B45,2013-02-18 14:35:00,
2013-02-18 09:40:00,20.3,1.4,29.99,NW,319,7.0,11.0,43,0.00,,,0.01,WeatherCatV1.12B45,2013-02-18 14:40:00,
2013-02-18 09:45:00,20.5,0.6,29.98,North,4,4.0,18.0,41,0.00,,,0.01,WeatherCatV1.12B45,2013-02-18 14:45:00,
2013-02-18 09:50:00,20.9,0.9,29.98,West,281,5.0,7.0,41,0.00,,,0.01,WeatherCatV1.12B45,2013-02-18 14:50:00,
2013-02-18 09:55:00,21.4,0.3,29.98,NW,313,6.0,14.0,39,0.00,,,0.01,WeatherCatV1.12B45,2013-02-18 14:55:00,
2013-02-18 10:00:00,21.4,0.3,29.98,NW,315,5.0,14.0,39,0.00,,,0.01,WeatherCatV1.12B45,2013-02-18 15:00:00,
2013-02-18 10:05:00,21.5,-0.1,29.98,WNW,293,8.0,19.0,38,0.00,,,0.01,WeatherCatV1.12B45,2013-02-18 15:05:00,
2013-02-18 10:10:00,21.5,-0.7,29.98,West,275,5.0,14.0,37,0.00,,,0.01,WeatherCatV1.12B45,2013-02-18 15:10:00,
2013-02-18 10:15:00,21.8,-1.0,29.98,NW,317,9.0,14.0,36,0.00,,,0.01,WeatherCatV1.12B45,2013-02-18 15:15:00,
2013-02-18 10:20:00,22.1,-1.9,29.99,West,275,5.0,13.0,34,0.00,,,0.01,WeatherCatV1.12B45,2013-02-18 15:20:00,
2013-02-18 10:25:00,22.5,-1.0,29.99,NNE,21,0.0,10.0,35,0.00,,,0.01,WeatherCatV1.12B45,2013-02-18 15:25:00,
2013-02-18 10:30:00,22.9,-1.2,29.98,NNW,334,2.0,10.0,34,0.00,,,0.01,WeatherCatV1.12B45,2013-02-18 15:30:00,
2013-02-18 10:35:00,23.2,-1.6,29.97,NNW,348,4.0,14.0,33,0.00,,,0.01,WeatherCatV1.12B45,2013-02-18 15:35:00,
2013-02-18 10:40:00,23.8,0.2,29.98,WNW,301,3.0,6.0,35,0.00,,,0.01,WeatherCatV1.12B45,2013-02-18 15:40:00,
2013-02-18 10:45:00,24.1,-0.8,29.98,North,350,5.0,15.0,33,0.00,,,0.01,WeatherCatV1.12B45,2013-02-18 15:45:00,
2013-02-18 10:50:00,24.2,-0.7,29.98,NE,41,7.0,10.0,33,0.00,,,0.01,WeatherCatV1.12B45,2013-02-18 15:50:00,
2013-02-18 10:55:00,24.7,-0.3,29.98,NNW,332,10.0,10.0,33,24.69,,,0.74,WeatherCatV1.12B45,2013-02-18 15:55:00,
2013-02-18 11:00:00,25.0,0.0,29.97,NW,308,4.0,12.0,33,0.02,,,0.74,WeatherCatV1.12B45,2013-02-18 16:00:00,
2013-02-18 11:05:00,25.3,0.3,29.97,WNW,295,4.0,19.0,33,0.00,,,0.74,WeatherCatV1.12B45,2013-02-18 16:05:00,
2013-02-18 11:10:00,25.6,-0.1,29.98,WNW,299,3.0,13.0,32,0.00,,,0.74,WeatherCatV1.12B45,2013-02-18 16:10:00,
2013-02-18 11:15:00,25.6,-0.8,29.98,NE,45,2.0,14.0,31,0.00,,,0.74,WeatherCatV1.12B45,2013-02-18 16:15:00,
2013-02-18 11:20:00,25.7,0.0,29.98,North,350,10.0,22.0,32,0.00,,,0.74,WeatherCatV1.12B45,2013-02-18 16:20:00,
2013-02-18 11:25:00,26.0,-0.4,29.98,WNW,289,8.0,8.0,31,0.00,,,0.74,WeatherCatV1.12B45,2013-02-18 16:25:00,
2013-02-18 11:30:00,26.3,-0.2,29.98,SW,225,1.0,7.0,31,0.00,,,0.74,WeatherCatV1.12B45,2013-02-18 16:30:00,
2013-02-18 11:35:00,26.9,-0.3,29.98,NW,310,2.0,14.0,30,0.00,,,0.74,WeatherCatV1.12B45,2013-02-18 16:35:00,
2013-02-18 11:40:00,26.9,-0.3,29.98,West,269,12.0,14.0,30,0.00,,,0.74,WeatherCatV1.12B45,2013-02-18 16:40:00,
2013-02-18 11:45:00,26.9,-0.3,29.98,SW,230,8.0,14.0,30,0.00,,,0.74,WeatherCatV1.12B45,2013-02-18 16:45:00,
2013-02-18 11:50:00,26.9,0.4,29.98,WNW,284,5.0,13.0,31,0.00,,,0.74,WeatherCatV1.12B45,2013-02-18 16:50:00,
2013-02-18 11:55:00,27.0,-0.3,29.98,NW,322,8.0,17.0,30,0.00,,,0.74,WeatherCatV1.12B45,2013-02-18 16:55:00,
2013-02-18 12:00:00,26.9,-0.3,29.99,NW,313,3.0,10.0,30,0.00,,,0.74,WeatherCatV1.12B45,2013-02-18 17:00:00,
2013-02-18 12:05:00,26.9,-1.8,29.99,WNW,291,7.0,16.0,28,0.00,,,0.74,WeatherCatV1.12B45,2013-02-18 17:05:00,
2013-02-18 12:10:00,26.9,-1.1,29.98,WNW,300,4.0,8.0,29,0.00,,,0.74,WeatherCatV1.12B45,2013-02-18 17:10:00,
2013-02-18 12:15:00,27.0,-1.7,29.99,NNW,341,3.0,10.0,28,0.00,,,0.74,WeatherCatV1.12B45,2013-02-18 17:15:00,
2013-02-18 12:20:00,27.2,-0.1,29.98,NW,307,6.0,7.0,30,0.00,,,0.74,WeatherCatV1.12B45,2013-02-18 17:20:00,
2013-02-18 12:25:00,27.4,0.1,29.99,NNW,348,6.0,16.0,30,0.00,,,0.74,WeatherCatV1.12B45,2013-02-18 17:25:00,
2013-02-18 12:30:00,27.4,-0.6,29.99,WSW,237,5.0,20.0,29,0.00,,,0.74,WeatherCatV1.12B45,2013-02-18 17:30:00,
2013-02-18 12:35:00,27.1,-1.6,29.99,WSW,247,10.0,16.0,28,0.00,,,0.74,WeatherCatV1.12B45,2013-02-18 17:35:00,
2013-02-18 12:40:00,27.1,-0.9,29.98,NW,318,13.0,13.0,29,0.00,,,0.74,WeatherCatV1.12B45,2013-02-18 17:40:00,
2013-02-18 12:45:00,27.2,-0.8,29.98,NW,321,5.0,12.0,29,0.00,,,0.74,WeatherCatV1.12B45,2013-02-18 17:45:00,
2013-02-18 12:50:00,27.1,-1.6,29.99,North,349,13.0,15.0,28,0.00,,,0.74,WeatherCatV1.12B45,2013-02-18 17:50:00,
2013-02-18 12:55:00,27.5,0.2,29.98,NNE,23,4.0,14.0,30,0.00,,,0.74,WeatherCatV1.12B45,2013-02-18 17:55:00,
2013-02-18 13:00:00,28.1,0.7,29.98,WNW,285,3.0,7.0,30,0.00,,,0.74,WeatherCatV1.12B45,2013-02-18 18:00:00,
2013-02-18 13:05:00,28.4,0.2,29.98,West,270,11.0,12.0,29,0.00,,,0.74,WeatherCatV1.12B45,2013-02-18 18:05:00,
2013-02-18 13:10:00,28.3,-0.6,29.99,NW,314,6.0,11.0,28,0.00,,,0.74,WeatherCatV1.12B45,2013-02-18 18:10:00,
2013-02-18 13:15:00,28.5,1.1,29.99,SSW,195,8.0,15.0,30,0.00,,,0.74,WeatherCatV1.12B45,2013-02-18 18:15:00,
2013-02-18 13:20:00,28.5,-0.4,29.99,ENE,72,9.0,17.0,28,0.00,,,0.74,WeatherCatV1.12B45,2013-02-18 18:20:00,
2013-02-18 13:25:00,28.4,-0.5,29.99,NW,322,3.0,14.0,28,0.00,,,0.74,WeatherCatV1.12B45,2013-02-18 18:25:00,
2013-02-18 13:30:00,28.2,-0.7,29.99,SSW,206,1.0,10.0,28,0.00,,,0.74,WeatherCatV1.12B45,2013-02-18 18:30:00,
2013-02-18 13:35:00,28.6,-0.3,29.99,West,275,10.0,10.0,28,0.00,,,0.74,WeatherCatV1.12B45,2013-02-18 18:35:00,
2013-02-18 13:40:00,28.7,1.2,29.99,West,272,3.0,10.0,30,0.00,,,0.74,WeatherCatV1.12B45,2013-02-18 18:40:00,
2013-02-18 13:45:00,28.8,1.3,30.00,West,268,0.0,13.0,30,0.00,,,0.74,WeatherCatV1.12B45,2013-02-18 18:45:00,
2013-02-18 13:50:00,29.1,0.9,29.99,WNW,288,3.0,6.0,29,0.00,,,0.74,WeatherCatV1.12B45,2013-02-18 18:50:00,
2013-02-18 13:55:00,29.6,2.0,30.00,WSW,241,4.0,7.0,30,0.00,,,0.74,WeatherCatV1.12B45,2013-02-18 18:55:00,
2013-02-18 14:00:00,29.3,0.3,30.00,NW,316,6.0,11.0,28,0.00,,,0.74,WeatherCatV1.12B45,2013-02-18 19:00:00,
2013-02-18 14:05:00,29.1,1.6,30.00,WNW,300,0.0,9.0,30,0.00,,,0.74,WeatherCatV1.12B45,2013-02-18 19:05:00,
2013-02-18 14:10:00,29.0,0.0,29.96,NW,309,0.0,16.0,28,0.00,,,0.74,WeatherCatV1.12B45,2013-02-18 19:10:00,
2013-02-18 14:15:00,29.1,0.1,30.03,WSW,256,6.0,12.0,28,0.00,,,0.74,WeatherCatV1.12B45,2013-02-18 19:15:00,
2013-02-18 14:20:00,29.3,0.3,30.00,WNW,286,8.0,16.0,28,0.00,,,0.74,WeatherCatV1.12B45,2013-02-18 19:20:00,
2013-02-18 14:25:00,29.1,0.1,30.00,SSW,209,12.0,12.0,28,0.00,,,0.74,WeatherCatV1.12B45,2013-02-18 19:25:00,
2013-02-18 14:30:00,29.6,1.3,30.01,NW,312,6.0,9.0,29,0.00,,,0.74,WeatherCatV1.12B45,2013-02-18 19:30:00,
2013-02-18 14:35:00,29.3,0.3,30.01,West,267,7.0,14.0,28,0.00,,,0.74,WeatherCatV1.12B45,2013-02-18 19:35:00,
2013-02-18 14:40:00,29.1,0.1,30.01,WSW,258,0.0,12.0,28,0.00,,,0.74,WeatherCatV1.12B45,2013-02-18 19:40:00,
2013-02-18 14:45:00,29.4,0.4,30.01,West,271,5.0,7.0,28,0.00,,,0.74,WeatherCatV1.12B45,2013-02-18 19:45:00,
2013-02-18 14:50:00,29.4,-0.4,30.00,WSW,257,6.0,10.0,27,0.00,,,0.74,WeatherCatV1.12B45,2013-02-18 19:50:00,
2013-02-18 14:55:00,29.7,0.6,30.00,SSW,213,8.0,9.0,28,0.00,,,0.74,WeatherCatV1.12B45,2013-02-18 19:55:00,
2013-02-18 15:00:00,29.9,0.0,30.01,NW,326,2.0,9.0,27,0.00,,,0.74,WeatherCatV1.12B45,2013-02-18 20:00:00,
2013-02-18 15:05:00,29.9,0.0,30.01,WNW,289,5.0,10.0,27,0.00,,,0.74,WeatherCatV1.12B45,2013-02-18 20:05:00,
2013-02-18 15:10:00,29.8,-0.1,30.02,NNW,327,2.0,9.0,27,0.00,,,0.74,WeatherCatV1.12B45,2013-02-18 20:10:00,
2013-02-18 15:15:00,29.9,0.0,30.01,WSW,256,1.0,12.0,27,0.00,,,0.74,WeatherCatV1.12B45,2013-02-18 20:15:00,
2013-02-18 15:20:00,29.9,0.0,30.03,SW,232,2.0,7.0,27,0.00,,,0.74,WeatherCatV1.12B45,2013-02-18 20:20:00,
2013-02-18 15:25:00,30.1,0.2,30.02,WNW,287,1.0,8.0,27,0.00,,,0.74,WeatherCatV1.12B45,2013-02-18 20:25:00,
2013-02-18 15:30:00,30.1,0.2,30.02,WNW,295,6.0,10.0,27,0.00,,,0.74,WeatherCatV1.12B45,2013-02-18 20:30:00,
2013-02-18 15:35:00,29.9,0.0,30.02,East,91,3.0,10.0,27,0.00,,,0.74,WeatherCatV1.12B45,2013-02-18 20:35:00,
2013-02-18 15:40:00,29.9,0.0,30.02,West,271,4.0,9.0,27,0.00,,,0.74,WeatherCatV1.12B45,2013-02-18 20:40:00,
2013-02-18 15:45:00,29.9,0.0,30.02,West,273,0.0,7.0,27,0.00,,,0.74,WeatherCatV1.12B45,2013-02-18 20:45:00,
2013-02-18 15:50:00,29.9,0.0,30.02,NW,315,4.0,5.0,27,0.00,,,0.74,WeatherCatV1.12B45,2013-02-18 20:50:00,
2013-02-18 15:55:00,29.7,-0.9,30.03,SW,225,3.0,12.0,26,0.00,,,0.74,WeatherCatV1.12B45,2013-02-18 20:55:00,
2013-02-18 16:00:00,29.7,-1.8,30.03,NW,307,4.0,12.0,25,0.00,,,0.74,WeatherCatV1.12B45,2013-02-18 21:00:00,
2013-02-18 16:05:00,29.6,-0.2,30.04,West,274,4.0,7.0,27,0.00,,,0.74,WeatherCatV1.12B45,2013-02-18 21:05:00,
2013-02-18 16:10:00,29.6,-1.0,30.04,SW,229,5.0,15.0,26,0.00,,,0.74,WeatherCatV1.12B45,2013-02-18 21:10:00,
2013-02-18 16:15:00,29.5,-1.1,30.04,WNW,295,3.0,6.0,26,0.00,,,0.74,WeatherCatV1.12B45,2013-02-18 21:15:00,
2013-02-18 16:20:00,29.4,-1.2,30.04,SW,228,7.0,8.0,26,0.00,,,0.74,WeatherCatV1.12B45,2013-02-18 21:20:00,
2013-02-18 16:25:00,29.5,-1.1,30.05,WNW,298,4.0,5.0,26,0.00,,,0.74,WeatherCatV1.12B45,2013-02-18 21:25:00,
2013-02-18 16:30:00,29.5,-1.1,30.04,NE,37,5.0,11.0,26,0.00,,,0.74,WeatherCatV1.12B45,2013-02-18 21:30:00,
2013-02-18 16:35:00,29.6,-1.0,30.04,NW,315,3.0,5.0,26,0.00,,,0.74,WeatherCatV1.12B45,2013-02-18 21:35:00,
2013-02-18 16:40:00,29.6,-1.0,30.05,NNW,342,1.0,5.0,26,0.00,,,0.74,WeatherCatV1.12B45,2013-02-18 21:40:00,
2013-02-18 16:41:00,29.6,-0.2,30.05,North,0,2.0,5.0,27,0.00,,,0.74,WeatherCatV1.12B45,2013-02-18 21:41:00,
2013-02-18 16:46:00,29.4,-0.4,30.08,WNW,297,0.0,5.0,27,0.00,,,0.74,WeatherCatV1.12B45,2013-02-18 21:46:00,
2013-02-18 16:51:00,29.5,-0.3,30.05,NW,305,5.0,5.0,27,0.00,,,0.74,WeatherCatV1.12B45,2013-02-18 21:51:00,
2013-02-18 16:56:00,29.3,-0.5,30.05,West,272,0.0,2.0,27,0.00,,,0.74,WeatherCatV1.12B45,2013-02-18 21:56:00,
2013-02-18 17:01:00,29.1,-0.7,30.05,West,272,2.0,3.0,27,0.00,,,0.74,WeatherCatV1.12B45,2013-02-18 22:01:00,
2013-02-18 17:06:00,29.0,-0.7,30.06,NNW,328,2.0,5.0,27,0.00,,,0.74,WeatherCatV1.12B45,2013-02-18 22:06:00,
2013-02-18 17:11:00,28.8,-0.9,30.06,WNW,298,2.0,3.0,27,0.00,,,0.74,WeatherCatV1.12B45,2013-02-18 22:11:00,
2013-02-18 17:16:00,28.7,-1.0,30.05,West,261,2.0,3.0,27,0.00,,,0.74,WeatherCatV1.12B45,2013-02-18 22:16:00,
2013-02-18 17:21:00,28.7,-0.2,30.05,WSW,254,4.0,5.0,28,0.00,,,0.74,WeatherCatV1.12B45,2013-02-18 22:21:00,
2013-02-18 17:26:00,28.6,-0.3,30.06,WSW,257,2.0,2.0,28,0.00,,,0.74,WeatherCatV1.12B45,2013-02-18 22:26:00,
2013-02-18 17:31:00,28.3,0.2,30.06,WSW,257,3.0,3.0,29,0.00,,,0.74,WeatherCatV1.12B45,2013-02-18 22:31:00,
2013-02-18 17:36:00,28.1,0.7,30.07,WSW,257,0.0,0.0,30,0.00,,,0.74,WeatherCatV1.12B45,2013-02-18 22:36:00,
2013-02-18 17:41:00,27.8,1.1,30.07,WSW,257,2.0,4.0,31,0.00,,,0.74,WeatherCatV1.12B45,2013-02-18 22:41:00,
2013-02-18 17:46:00,27.7,1.1,30.07,WSW,257,0.0,0.0,31,0.00,,,0.74,WeatherCatV1.12B45,2013-02-18 22:46:00,
2013-02-18 17:51:00,27.4,0.8,30.08,WSW,257,0.0,1.0,31,0.00,,,0.74,WeatherCatV1.12B45,2013-02-18 22:51:00,
2013-02-18 17:56:00,27.1,1.9,30.08,WSW,257,1.0,2.0,33,0.00,,,0.74,WeatherCatV1.12B45,2013-02-18 22:56:00,
2013-02-18 18:01:00,26.8,0.9,30.07,WSW,257,1.0,3.0,32,0.00,,,0.74,WeatherCatV1.12B45,2013-02-18 23:01:00,
2013-02-18 18:06:00,26.9,1.0,30.08,WSW,257,1.0,3.0,32,0.00,,,0.74,WeatherCatV1.12B45,2013-02-18 23:06:00,
2013-02-18 18:11:00,26.8,1.6,30.07,WSW,257,1.0,3.0,33,0.00,,,0.74,WeatherCatV1.12B45,2013-02-18 23:11:00,
2013-02-18 18:16:00,26.7,1.5,30.08,WSW,257,0.0,0.0,33,0.00,,,0.74,WeatherCatV1.12B45,2013-02-18 23:16:00,
2013-02-18 18:21:00,26.2,1.7,30.08,WSW,257,0.0,2.0,34,4.61,,,0.99,WeatherCatV1.12B45,2013-02-18 23:21:00,
2013-02-18 18:26:00,25.9,2.7,30.08,WSW,257,0.0,2.0,36,0.00,,,0.99,WeatherCatV1.12B45,2013-02-18 23:26:00,
2013-02-18 18:31:00,25.7,1.9,30.08,WSW,257,0.0,2.0,35,0.00,,,0.99,WeatherCatV1.12B45,2013-02-18 23:31:00,
2013-02-18 18:36:00,25.6,0.5,30.08,WSW,257,0.0,3.0,33,0.00,,,0.99,WeatherCatV1.12B45,2013-02-18 23:36:00,
2013-02-18 18:41:00,25.5,0.4,30.09,WSW,257,0.0,0.0,33,0.00,,,0.99,WeatherCatV1.12B45,2013-02-18 23:41:00,
2013-02-18 18:46:00,25.6,0.5,30.07,WSW,257,0.0,0.0,33,0.00,,,0.99,WeatherCatV1.12B45,2013-02-18 23:46:00,
2013-02-18 18:51:00,25.4,0.4,30.09,WSW,257,1.0,3.0,33,0.00,,,0.99,WeatherCatV1.12B45,2013-02-18 23:51:00,
2013-02-18 18:56:00,25.1,0.1,30.10,WSW,257,1.0,3.0,33,0.00,,,0.99,WeatherCatV1.12B45,2013-02-18 23:56:00,
2013-02-18 19:01:00,25.1,0.1,30.08,WSW,257,0.0,4.0,33,0.00,,,0.99,WeatherCatV1.12B45,2013-02-19 00:01:00,
2013-02-18 19:06:00,25.3,0.3,30.10,WSW,257,0.0,1.0,33,0.00,,,0.99,WeatherCatV1.12B45,2013-02-19 00:06:00,
2013-02-18 19:11:00,25.3,0.3,30.10,WSW,257,0.0,2.0,33,0.00,,,0.99,WeatherCatV1.12B45,2013-02-19 00:11:00,
2013-02-18 19:16:00,25.3,0.3,30.10,WSW,257,0.0,2.0,33,0.00,,,0.99,WeatherCatV1.12B45,2013-02-19 00:16:00,
2013-02-18 19:21:00,25.0,0.0,30.10,WSW,257,0.0,0.0,33,0.00,,,0.99,WeatherCatV1.12B45,2013-02-19 00:21:00,
2013-02-18 19:26:00,24.8,0.5,30.10,WSW,257,0.0,0.0,34,0.00,,,0.99,WeatherCatV1.12B45,2013-02-19 00:26:00,
2013-02-18 19:31:00,24.5,-0.4,30.10,WSW,257,0.0,0.0,33,0.00,,,0.99,WeatherCatV1.12B45,2013-02-19 00:31:00,
2013-02-18 19:36:00,24.2,-0.1,30.10,WSW,257,0.0,0.0,34,0.00,,,0.99,WeatherCatV1.12B45,2013-02-19 00:36:00,
2013-02-18 19:41:00,24.1,-0.2,30.10,WSW,257,0.0,0.0,34,0.00,,,0.99,WeatherCatV1.12B45,2013-02-19 00:41:00,
2013-02-18 19:46:00,23.6,1.2,30.10,WSW,257,0.0,0.0,37,0.00,,,0.99,WeatherCatV1.12B45,2013-02-19 00:46:00,
2013-02-18 19:51:00,23.4,1.6,30.10,WSW,257,0.0,0.0,38,0.00,,,0.99,WeatherCatV1.12B45,2013-02-19 00:51:00,
2013-02-18 19:56:00,23.2,2.0,30.11,WSW,257,0.0,2.0,39,0.00,,,0.99,WeatherCatV1.12B45,2013-02-19 00:56:00,
2013-02-18 20:01:00,23.1,2.9,30.10,WSW,257,1.0,2.0,41,0.00,,,0.99,WeatherCatV1.12B45,2013-02-19 01:01:00,
2013-02-18 20:06:00,22.4,2.3,30.11,WSW,257,2.0,2.0,41,0.00,,,0.99,WeatherCatV1.12B45,2013-02-19 01:06:00,
2013-02-18 20:11:00,22.0,1.9,30.11,WSW,257,0.0,1.0,41,0.00,,,0.99,WeatherCatV1.12B45,2013-02-19 01:11:00,
2013-02-18 20:16:00,22.0,1.9,30.11,WSW,257,0.0,2.0,41,0.00,,,0.99,WeatherCatV1.12B45,2013-02-19 01:16:00,
2013-02-18 20:21:00,21.8,2.3,30.11,WSW,257,0.0,2.0,42,0.00,,,0.99,WeatherCatV1.12B45,2013-02-19 01:21:00,
2013-02-18 20:26:00,21.8,1.8,30.12,WSW,257,0.0,4.0,41,0.00,,,0.99,WeatherCatV1.12B45,2013-02-19 01:26:00,
2013-02-18 20:31:00,21.8,2.3,30.11,WSW,257,2.0,2.0,42,0.00,,,0.99,WeatherCatV1.12B45,2013-02-19 01:31:00,
2013-02-18 20:36:00,22.1,2.0,30.11,WSW,257,2.0,3.0,41,0.00,,,0.99,WeatherCatV1.12B45,2013-02-19 01:36:00,
2013-02-18 20:41:00,22.6,2.5,30.11,WSW,257,2.0,3.0,41,0.00,,,0.99,WeatherCatV1.12B45,2013-02-19 01:41:00,
2013-02-18 20:46:00,22.8,2.7,30.11,WSW,257,2.0,3.0,41,0.00,,,0.99,WeatherCatV1.12B45,2013-02-19 01:46:00,
2013-02-18 20:51:00,23.0,2.8,30.12,WSW,257,1.0,5.0,41,0.00,,,0.99,WeatherCatV1.12B45,2013-02-19 01:51:00,
2013-02-18 20:52:00,23.1,2.9,30.12,WSW,257,3.0,6.0,41,0.00,,,0.99,WeatherCatV1.12B45,2013-02-19 01:52:00,
2013-02-18 20:57:00,23.2,2.5,30.12,WSW,257,1.0,2.0,40,0.00,,,0.99,WeatherCatV1.12B45,2013-02-19 01:57:00,
2013-02-18 21:02:00,23.2,2.5,30.12,WSW,257,1.0,3.0,40,0.00,,,0.99,WeatherCatV1.12B45,2013-02-19 02:02:00,
2013-02-18 21:07:00,23.1,2.9,30.12,WSW,257,1.0,3.0,41,0.00,,,0.99,WeatherCatV1.12B45,2013-02-19 02:07:00,
2013-02-18 21:12:00,22.9,3.3,30.12,WSW,257,3.0,3.0,42,0.00,,,0.99,WeatherCatV1.12B45,2013-02-19 02:12:00,
2013-02-18 21:17:00,22.7,3.6,30.12,WSW,257,3.0,4.0,43,0.00,,,0.99,WeatherCatV1.12B45,2013-02-19 02:17:00,
2013-02-18 21:22:00,22.3,3.2,30.13,WSW,257,1.0,4.0,43,0.00,,,0.99,WeatherCatV1.12B45,2013-02-19 02:22:00,
2013-02-18 21:27:00,22.1,2.6,30.12,WSW,257,1.0,3.0,42,0.00,,,0.99,WeatherCatV1.12B45,2013-02-19 02:27:00,
2013-02-18 21:32:00,22.1,2.6,30.13,WSW,257,1.0,3.0,42,0.00,,,0.99,WeatherCatV1.12B45,2013-02-19 02:32:00,
2013-02-18 21:37:00,22.0,3.0,30.13,WSW,257,1.0,4.0,43,0.00,,,0.99,WeatherCatV1.12B45,2013-02-19 02:37:00,
2013-02-18 21:42:00,21.9,2.9,30.12,WSW,257,2.0,4.0,43,0.00,,,0.99,WeatherCatV1.12B45,2013-02-19 02:42:00,
2013-02-18 21:47:00,22.1,2.6,30.12,WSW,257,1.0,3.0,42,0.00,,,0.99,WeatherCatV1.12B45,2013-02-19 02:47:00,
2013-02-18 21:52:00,22.3,3.2,30.12,WSW,257,0.0,0.0,43,0.00,,,0.99,WeatherCatV1.12B45,2013-02-19 02:52:00,
2013-02-18 21:57:00,22.3,2.7,30.12,WSW,257,1.0,2.0,42,0.00,,,0.99,WeatherCatV1.12B45,2013-02-19 02:57:00,
2013-02-18 22:02:00,22.3,2.7,30.12,WSW,257,0.0,3.0,42,0.00,,,0.99,WeatherCatV1.12B45,2013-02-19 03:02:00,
2013-02-18 22:07:00,22.1,3.1,30.12,SW,234,0.0,3.0,43,0.00,,,0.99,WeatherCatV1.12B45,2013-02-19 03:07:00,
2013-02-18 22:12:00,22.0,3.0,30.13,SW,234,1.0,3.0,43,0.00,,,0.99,WeatherCatV1.12B45,2013-02-19 03:12:00,
2013-02-18 22:17:00,21.9,2.9,30.13,SW,234,3.0,3.0,43,0.09,,,1.26,WeatherCatV1.12B45,2013-02-19 03:17:00,
2013-02-18 22:22:00,21.7,3.2,30.14,SW,234,1.0,3.0,44,0.00,,,1.26,WeatherCatV1.12B45,2013-02-19 03:22:00,
2013-02-18 22:27:00,21.4,3.4,30.14,SW,234,3.0,4.0,45,0.00,,,1.26,WeatherCatV1.12B45,2013-02-19 03:27:00,
2013-02-18 22:32:00,21.1,3.1,30.14,SW,234,1.0,4.0,45,0.00,,,1.26,WeatherCatV1.12B45,2013-02-19 03:32:00,
2013-02-18 22:37:00,21.2,2.7,30.14,SSW,209,1.0,3.0,44,0.00,,,1.26,WeatherCatV1.12B45,2013-02-19 03:37:00,
2013-02-18 22:42:00,21.4,2.4,30.14,SSW,209,2.0,4.0,43,0.00,,,1.26,WeatherCatV1.12B45,2013-02-19 03:42:00,
2013-02-18 22:47:00,21.6,3.1,30.15,SSW,209,2.0,3.0,44,0.00,,,1.26,WeatherCatV1.12B45,2013-02-19 03:47:00,
2013-02-18 22:52:00,21.4,2.9,30.14,SSW,209,0.0,2.0,44,0.00,,,1.26,WeatherCatV1.12B45,2013-02-19 03:52:00,
2013-02-18 22:55:00,21.4,2.9,30.15,SSW,209,1.0,3.0,44,0.00,,,1.26,WeatherCatV1.12B45,2013-02-19 03:55:00,
2013-02-18 23:00:00,21.2,3.2,30.15,SSW,209,3.0,3.0,45,0.00,,,1.26,WeatherCatV1.12B45,2013-02-19 04:00:00,
2013-02-18 23:05:00,21.1,3.1,30.16,SSW,209,1.0,2.0,45,0.00,,,1.26,WeatherCatV1.12B45,2013-02-19 04:05:00,
2013-02-18 23:10:00,20.8,3.3,30.15,SSW,209,1.0,4.0,46,0.00,,,1.26,WeatherCatV1.12B45,2013-02-19 04:10:00,
2013-02-18 23:15:00,20.6,4.1,30.16,SSW,209,2.0,2.0,48,0.00,,,1.26,WeatherCatV1.12B45,2013-02-19 04:15:00,
2013-02-18 23:20:00,20.0,3.9,30.16,SSW,209,0.0,0.0,49,9.11,,,2.31,WeatherCatV1.12B45,2013-02-19 04:20:00,
2013-02-18 23:25:00,19.9,4.3,30.15,SSW,208,1.0,3.0,50,0.00,,,2.31,WeatherCatV1.12B45,2013-02-19 04:25:00,
2013-02-18 23:30:00,19.6,4.0,30.15,SSW,209,0.0,4.0,50,0.00,,,2.31,WeatherCatV1.12B45,2013-02-19 04:30:00,
2013-02-18 23:35:00,19.3,3.3,30.15,SSW,209,0.0,3.0,49,0.00,,,2.31,WeatherCatV1.12B45,2013-02-19 04:35:00,
2013-02-18 23:40:00,19.1,4.0,30.15,SSW,209,1.0,2.0,51,0.00,,,2.31,WeatherCatV1.12B45,2013-02-19 04:40:00,
2013-02-18 23:45:00,19.0,3.9,30.15,SSW,209,0.0,1.0,51,0.00,,,2.31,WeatherCatV1.12B45,2013-02-19 04:45:00,
2013-02-18 23:50:00,18.8,4.5,30.15,SSW,209,1.0,2.0,53,0.00,,,2.31,WeatherCatV1.12B45,2013-02-19 04:50:00,
2013-02-18 23:55:00,18.5,4.3,30.16,SSW,209,1.0,2.0,53,0.00,,,2.31,WeatherCatV1.12B45,2013-02-19 04:55:00,